Location: ??????????
(48.4699°N, 37.9573°E)
Time: 12:09:06
(UTC+00:00)

Cosmos 1680 Rocket - Pass Details

Date: 20 January 2021
Orbit: 760 x 780 km, 74.1° (Epoch: 27 February)

Event Time Altitude Azimuth Distance (km) Brightness Sun altitude
Rises 16:36:24 0° 336° (NNW) 3,252 7.0 -24.2°
Reaches altitude 10° 16:38:48 10° 335° (NNW) 2,318 6.2 -24.6°
Maximum altitude 16:44:03 78° 250° (WSW) 787 3.5 -25.4°
Enters shadow 16:46:12 36° 170° (S) 1,189 4.3 -25.8°
